TimeEST,TemperatureF,Dew PointF,Humidity,Sea Level PressureIn,VisibilityMPH,Wind Direction,Wind SpeedMPH,Gust SpeedMPH,PrecipitationIn,Events,Conditions,WindDirDegrees,DateUTC
12:53 AM,21.9,14.0,72,30.13,10.0,West,6.9,-,N/A,,Overcast,280,2013-01-02 05:53:00
1:53 AM,21.9,14.0,72,30.13,10.0,West,9.2,-,N/A,,Overcast,270,2013-01-02 06:53:00
2:53 AM,21.9,12.9,68,30.14,10.0,West,11.5,19.6,N/A,,Overcast,280,2013-01-02 07:53:00
3:53 AM,21.9,14.0,72,30.16,10.0,West,10.4,-,N/A,,Overcast,270,2013-01-02 08:53:00
4:53 AM,23.0,14.0,68,30.15,10.0,West,6.9,-,N/A,,Overcast,270,2013-01-02 09:53:00
5:53 AM,23.0,15.1,72,30.15,10.0,WSW,6.9,-,N/A,,Overcast,240,2013-01-02 10:53:00
6:53 AM,21.2,15.8,80,30.11,10.0,SW,5.8,-,N/A,,Overcast,230,2013-01-02 11:53:00
7:53 AM,23.0,16.0,74,30.16,10.0,West,6.9,-,N/A,,Overcast,260,2013-01-02 12:53:00
8:53 AM,24.1,17.1,75,30.17,9.0,West,6.9,-,0.00,Snow,Light Snow,280,2013-01-02 13:53:00
9:53 AM,24.8,17.6,74,30.15,7.0,WSW,5.8,-,N/A,Snow,Light Snow,240,2013-01-02 14:53:00
10:53 AM,24.1,18.0,77,30.21,9.0,SW,5.8,-,0.00,Snow,Light Snow,230,2013-01-02 15:53:00
11:53 AM,23.0,18.0,81,30.20,8.0,SSW,6.9,-,0.00,,Overcast,210,2013-01-02 16:53:00
12:53 PM,23.0,18.0,81,30.18,8.0,SW,5.8,-,N/A,,Overcast,220,2013-01-02 17:53:00
1:53 PM,24.1,18.0,77,30.17,8.0,SW,9.2,-,N/A,,Overcast,230,2013-01-02 18:53:00
2:53 PM,24.1,19.0,81,30.16,8.0,SW,6.9,-,N/A,,Overcast,220,2013-01-02 19:53:00
3:53 PM,25.0,18.0,75,30.17,10.0,SW,6.9,-,N/A,,Overcast,220,2013-01-02 20:53:00
4:53 PM,24.1,18.0,77,30.18,10.0,SSW,8.1,-,N/A,,Overcast,200,2013-01-02 21:53:00
5:53 PM,24.8,17.6,74,30.15,10.0,South,6.9,-,N/A,,Overcast,180,2013-01-02 22:53:00
6:48 PM,21.2,15.8,80,30.16,9.0,South,8.1,-,N/A,,Scattered Clouds,180,2013-01-02 23:48:00
6:53 PM,21.0,15.1,78,30.21,9.0,South,9.2,-,N/A,,Scattered Clouds,180,2013-01-02 23:53:00
7:53 PM,19.0,12.9,77,30.20,9.0,South,6.9,-,N/A,,Clear,170,2013-01-03 00:53:00
8:53 PM,18.0,12.9,81,30.19,8.0,South,8.1,-,N/A,,Clear,180,2013-01-03 01:53:00
9:53 PM,17.1,12.0,81,30.18,7.0,South,5.8,-,N/A,,Clear,170,2013-01-03 02:53:00
10:53 PM,17.1,10.0,74,30.18,9.0,South,5.8,-,N/A,,Clear,170,2013-01-03 03:53:00
11:53 PM,15.1,9.0,77,30.18,10.0,South,5.8,-,N/A,,Clear,180,2013-01-03 04:53:00